#timestamp,LO_Frequency,Hit 
1500526815.1,286047010.5,N
1500526816.0,286047010.5,N
1500526835.8,286047008.4,N
1500526855.6,286047008.2,N
1500526875.5,286047006.2,N
1500526895.3,286047006.9,N
1500526915.1,286047008.7,N
1500526935.9,286047009.2,N
1500526955.7,286047010.7,N
1500526975.5,286047009.1,N
1500526995.4,286047005.5,N
1500527015.2,286047003.6,N
1500527035.0,286047007.5,N
1500527035.9,286047007.5,N
1500527055.8,286047007.2,N
1500527075.6,286047010.4,N
1500527095.4,286047010.1,N
1500527115.3,286047010.8,N
1500527135.1,286047008.0,N
1500527136.0,286047008.0,N
1500527155.8,286047012.1,N
1500527175.6,286047011.7,N
1500527195.5,286047010.7,N
1500527215.3,286047007.0,N
1500527235.1,286047005.3,N
1500527255.9,286047010.4,N
1500527275.7,286047008.0,N
1500527295.5,286047008.8,N
1500527315.4,286047009.2,N
1500527335.2,286047008.2,N
1500527355.0,286047004.7,N
1500527355.9,286047004.7,N
1500527375.8,286047004.1,N
1500527395.6,286047003.5,N
1500527415.4,286047001.9,N
1500527435.3,286047000.2,N
1500527455.1,286047003.9,N
1500527475.8,286047005.1,N
1500527495.7,286047005.3,N
1500527515.5,286047006.2,N
1500527535.3,286047006.6,N
1500527555.2,286047005.0,N
1500527575.9,286047004.4,N
1500527595.7,286047004.1,N
1500527615.6,286047003.1,N
1500527635.4,286047004.2,N
1500527655.2,286047003.4,N
1500527675.1,286047007.5,N
1500527676.0,286047007.5,N
1500527695.8,286047007.6,N
1500527715.6,286047007.5,N
1500527735.4,286047005.3,N
1500527755.3,286047003.2,N
1500527775.1,286047003.5,N
1500527795.8,286047007.1,N
1500527815.7,286047007.0,N
1500527835.5,286047007.5,N
1500527855.3,286047010.5,N
1500527875.2,286047011.9,N
1500527895.0,286047013.6,N
1500527895.9,286047013.6,N
1500527915.7,286047013.0,N
1500527935.6,286047012.7,N
1500527955.4,286047014.6,N
1500527975.2,286047013.8,N
1500527995.1,286047010.4,N
1500527996.0,286047010.4,N
1500528015.8,286047010.5,N
1500528035.6,286047011.8,N
1500528055.5,286047013.2,N
1500528075.3,286047013.5,N
1500528095.1,286047014.7,N
1500528115.9,286047015.4,N
1500528135.7,286047014.9,N
1500528155.5,286047014.2,N
1500528175.4,286047017.6,N
1500528195.2,286047016.5,N
1500528215.0,286047015.0,N
1500528215.9,286047015.0,N
1500528235.8,286047016.7,N
1500528255.6,286047016.1,N
1500528275.4,286047014.2,N
1500528295.3,286047011.5,N
1500528315.1,286047014.0,N
1500528316.0,286047014.0,N
1500528335.8,286047011.8,N
1500528355.6,286047012.0,N
1500528375.5,286047010.8,N
1500528395.3,286047010.1,N
1500528415.1,286047008.6,N
1500528435.9,286047010.1,N
1500528455.7,286047010.8,N
1500528475.5,286047011.9,N
1500528495.4,286047013.0,N
1500528515.2,286047013.8,N
1500528535.0,286047011.1,N
1500528535.9,286047011.1,N
1500528555.8,286047011.2,N
1500528575.6,286047014.0,N
1500528595.4,286047012.9,N
1500528615.3,286047013.3,N
1500528635.1,286047013.3,N
1500528655.8,286047013.5,N
1500528675.7,286047012.6,N
1500528695.5,286047015.5,N
1500528715.3,286047012.7,N
1500528735.2,286047016.7,N
1500528755.9,286047013.9,N
1500528775.7,286047009.5,N
1500528795.6,286047010.3,N
1500528815.4,286047010.1,N
1500528835.2,286047010.4,N
1500528855.1,286047007.7,N
1500528856.0,286047007.7,N
1500528875.8,286047010.6,N
1500528895.6,286047011.9,N
1500528915.5,286047014.0,N
1500528935.3,286047013.8,N
1500528955.1,286047013.6,N
1500528975.9,286047012.6,N
1500528995.7,286047015.1,N
1500529015.5,286047013.3,N
1500529035.4,286047015.0,N
1500529055.2,286047015.4,N
1500529075.0,286047013.0,N
1500529075.9,286047013.0,N
1500529095.8,286047013.6,N
1500529115.6,286047013.8,N
1500529135.4,286047014.8,N
1500529155.2,286047016.9,N
1500529175.1,286047014.4,N
1500529176.0,286047014.4,N
1500529195.8,286047014.5,N
1500529215.6,286047016.9,N
1500529235.5,286047018.6,N
1500529255.3,286047018.0,N
1500529275.1,286047018.3,N
1500529295.9,286047018.7,N
1500529315.7,286047017.6,N
1500529335.5,286047016.1,N
1500529355.4,286047017.8,N
1500529375.2,286047018.1,N
1500529395.0,286047018.7,N
1500529395.9,286047018.7,N
1500529415.8,286047018.0,N
1500529435.6,286047017.6,N
1500529455.4,286047016.1,N
1500529475.3,286047017.2,N
1500529495.1,286047013.0,N
1500529515.8,286047015.1,N
1500529535.7,286047015.3,N
1500529555.5,286047013.4,N
1500529575.3,286047013.5,N
1500529595.2,286047012.0,N
1500529615.9,286047012.3,N
1500529635.7,286047012.3,N
1500529655.6,286047012.0,N
1500529675.4,286047008.8,N
1500529695.2,286047006.7,N
1500529715.1,286047007.0,N
1500529716.0,286047007.0,N
1500529735.8,286047009.0,N
1500529755.6,286047006.6,N
1500529775.5,286047006.2,N
1500529795.3,286047007.2,N
1500529815.1,286047007.0,N
1500529835.9,286047006.5,N
1500529855.7,286047009.1,N
1500529875.5,286047006.6,N
1500529895.3,286047007.1,N
1500529915.2,286047007.3,N
1500529935.0,286047009.0,N
1500529935.9,286047009.0,N
1500529955.7,286047010.7,N
1500529975.6,286047009.9,N
1500529995.4,286047010.0,N
1500530015.2,286047012.4,N
1500530035.1,286047009.3,N
1500530036.0,286047009.3,N
1500530055.8,286047010.6,N
1500530075.6,286047008.6,N
1500530095.5,286047006.1,N
1500530115.3,286047004.6,N
1500530135.1,286047007.2,N
1500530155.9,286047005.8,N
1500530175.7,286047004.6,N
1500530195.5,286047006.5,N
1500530215.4,286047007.9,N
1500530235.2,286047009.2,N
1500530255.0,286047006.7,N
1500530255.9,286047006.7,N
1500530275.8,286047005.4,N
1500530295.6,286047005.4,N
1500530315.4,286047005.0,N
1500530335.3,286047006.8,N
1500530355.1,286047006.7,N
1500530356.0,286047006.7,N
1500530375.8,286047007.6,N
1500530395.7,286047006.2,N
